Location: Passau
(48.5830°N, 13.4830°E)
Time: 19:57:11
(UTC+02:00)

Envisat - Pass Details

Date: 25 April 2024
Orbit: 762 x 764 km, 98.3° (Epoch: 29 May)

Event Time Altitude Azimuth Distance (km) Brightness Sun altitude
Rises 04:27:25 0° 15° (NNE) 3,240 7.2 -13.5°
Reaches altitude 10° 04:29:45 10° 17° (NNE) 2,309 6.4 -13.2°
Maximum altitude 04:34:50 74° 103° (ESE) 797 3.2 -12.6°
Drops below altitude 10° 04:39:53 10° 189° (S) 2,291 5.1 -11.9°
Enters shadow 04:40:45 - 190° (S) 2,635 5.4 -11.8°
